カタログに戻る

SL-3 R/B

運用中PO
NORAD 11963·ROCKET BODY·🇷🇺 Russia

打ち上げ Sep 9, 1980 から Plesetsk Cosmodrome

Loading…

次のパス (今後24時間)

TLE

最新Source: Space-Track

元期: Sep 14, 2026, 12:29 UTC

1 11963U 80073B   26257.52020702  .00000065  00000-0  29073-4 0  9994
2 11963  81.2729  91.0077 0074018 237.2254 122.1771 14.10185738366004

AllMySatでSL-3 R/Bをリアルタイム追跡

Download on the App Store